This is the latest recevied weather packets stored in our database for station/object N8BAP. If no packets are shown the sender has not sent any weather packets the latest 10 day(s).
| Time | Temp. | Humidity | Pressure | Rain* | Wind** | Luminosity | Snow |
|---|---|---|---|---|---|---|---|
| 1788525458 | 26.67° C | 81% | 1022.2 hPa | 0 mm | - | 69 W/m² | - |
| 1788525153 | 26.67° C | 82% | 1022.4 hPa | 0 mm | - | 64 W/m² | - |
| 1788524848 | 26.11° C | 83% | 1022.1 hPa | 0 mm | - | 60 W/m² | - |
| 1788524542 | 25.56° C | 84% | 1022.4 hPa | 0 mm | - | 58 W/m² | - |
| 1788524238 | 25.56° C | 85% | 1022.3 hPa | 0 mm | - | 62 W/m² | - |
| 1788523933 | 25° C | 86% | 1022.3 hPa | 0 mm | - | 59 W/m² | - |
| 1788523630 | 25° C | 87% | 1021.8 hPa | 0 mm | - | 52 W/m² | - |
| 1788523325 | 24.44° C | 87% | 1021.9 hPa | 0 mm | - | 46 W/m² | - |
| 1788523021 | 24.44° C | 87% | 1021.9 hPa | 0 mm | - | 42 W/m² | - |
| 1788522715 | 24.44° C | 86% | 1021.6 hPa | 0 mm | - | 37 W/m² | - |
| 1788522415 | 24.44° C | 86% | 1021.7 hPa | 0 mm | - | 32 W/m² | - |
| 1788522109 | 23.89° C | 88% | 1021.5 hPa | 0 mm | - | 26 W/m² | - |
| 1788521804 | 23.33° C | 89% | 1021.5 hPa | 0 mm | - | 23 W/m² | - |
| 1788521503 | 23.89° C | 88% | 1021.5 hPa | 0 mm | - | 19 W/m² | - |
| 1788521199 | 23.89° C | 88% | 1021.1 hPa | 0 mm | - | 14 W/m² | - |
| 1788520895 | 23.89° C | 88% | 1021.4 hPa | 0 mm | - | 11 W/m² | - |
| 1788520590 | 23.89° C | 87% | 1021.4 hPa | 0 mm | - | 6 W/m² | - |
| 1788520285 | 23.89° C | 86% | 1021.1 hPa | 0 mm | - | 4 W/m² | - |
| 1788519981 | 23.89° C | 86% | 1021.1 hPa | 0 mm | - | 2 W/m² | - |
| 1788519681 | 24.44° C | 86% | 1020.9 hPa | 0 mm | - | 0 W/m² | - |
| 1788519407 | 24.44° C | 86% | 1020.9 hPa | 0 mm | - | 0 W/m² | - |
| 1788519076 | 24.44° C | 86% | 1020.9 hPa | 0 mm | - | 0 W/m² | - |
| 1788518771 | 24.44° C | 86% | 1020.8 hPa | 0 mm | - | 0 W/m² | - |
| 1788518467 | 23.89° C | 87% | 1020.7 hPa | 0 mm | - | 0 W/m² | - |
| 1788518163 | 23.89° C | 88% | 1021 hPa | 0 mm | - | 0 W/m² | - |
* Rain latest hour (hover to see other rain measurements)
** Current wind speed in m/s (hover to see current wind gust speed)